Regional Weather Roundup
Issued by NWS Midland/Odessa, TX

Skip options and go directly to product.
Home | Oldest Version | Previous Version | Current Version | All | Text Only | Save Text | Print | Product List | Glossary Off

Skip product version selection by date and time.   

063
ASUS44 KMAF 030010
RWRMAF
MIDLAND AREA WEATHER ROUNDUP
NATIONAL WEATHER SERVICE MIDLAND TX
600 PM CST MON MAR 02 2015

...IN SOUTHWEST TEXAS AND SOUTHEAST NEW MEXICO...

CITY           SKY/WX    TMP DP  RH WIND       PRES   REMARKS
ALPINE         MOSUNNY   53  41  64 NE6       30.09F
ANDREWS        CLOUDY    35  35 100 SE5       30.08F FOG     WCI  31
ARTESIA        PTSUNNY   39  37  93 S15G21    30.02F WCI  31
BIG SPRING     CLOUDY    38  36  90 CALM      30.13F
CARLSBAD       CLOUDY    40  34  79 S10       30.04F WCI  33
DRYDEN           N/A     47  40  76 E8        30.07F
FORT STOCKTON  CLOUDY    41  38  89 NE12      30.06F WCI  34
GUAD PASS      NOT AVBL
HOBBS          PTCLDY    39  37  93 E13       30.04F WCI  32
MARFA          CLOUDY    64  36  34 SE8       30.03F
MIDLAND AIRPK  CLOUDY    38  38 100 E6        30.10F FOG     WCI  33
MIDLAND INTL   CLOUDY    37  35  92 SE7       30.09F FOG     WCI  32
ODESSA         CLOUDY    36  34  92 SE5       30.09S FOG     WCI  32
PECOS          CLOUDY    43  35  74 CALM      30.08F
PRESIDIO       FAIR      71  40  33 E6        29.93F
SEMINOLE       CLOUDY    35  34  97 SE6       30.08F FOG     WCI  30
SNYDER         CLOUDY    34  33  96 CALM      30.13F FOG
WINK           CLOUDY    43  33  68 E8        30.06F WCI  38
$$
...OTHER STATIONS IN TEXAS...

CITY           SKY/WX    TMP DP  RH WIND       PRES   REMARKS
ABILENE        CLOUDY    38  34  85 CALM      30.15F
AMARILLO       CLOUDY    34  30  85 S14       30.01F WCI  25
AUSTIN         FOG       43  42  97 NE9       30.17F VSB 1   WCI  38
BROWNSVILLE    FOG       57  56  96 N8        30.12S VSB 3/4
CORPUS CHRISTI DRZL/FOG  54  52  93 N6        30.14F VSB 1
DALLAS FTW     CLOUDY    40  38  93 CALM      30.20F FOG
DEL RIO        CLOUDY    51  44  77 E7        30.11F
EL PASO        LGT RAIN  55  50  83 E5        29.95F
HOUSTON INT    CLOUDY    58  54  86 NE6       30.16F
LUBBOCK        CLOUDY    33  32  96 S10       30.06F FOG     WCI  25
SAN ANGELO     CLOUDY    38  36  92 NE5       30.13F WCI  34
SAN ANTONIO    DRIZZLE   47  45  93 NE6       30.15F FOG
WACO           FOG       40  39  97 N8        30.20F VSB 1   WCI  34
WICHITA FALLS  NOT AVBL
$$
...OTHER LOCATIONS IN NEW MEXICO...

CITY           SKY/WX    TMP DP  RH WIND       PRES   REMARKS
ALAMAGORDO     CLOUDY    54  46  76 SE13      29.98F
ALBUQUERQUE    CLOUDY    57  35  43 S29G38    29.84F
CANNON AFB     CLOUDY    36  34  93 S13       29.99F WCI  28
CLOVIS         CLOUDY    36  32  87 S14       29.99F WCI  27
HOLLOMAN AFB   CLOUDY    55  47  74 S10       29.94F
ROSWELL        CLOUDY    40  34  79 S16       30.00F WCI  31
RUIDOSO        CLOUDY    43  37  81 S25G33    30.00S WCI  33
SANTA FE       CLOUDY    53  31  42 S20G29    29.84F
TRUTH OR CONSE CLOUDY    57  45  64 S17       29.90F
TUCUMCARI      CLOUDY    37  33  85 SW10      29.96F WCI  30
$$

USA.gov is the U.S. government's official web portal to all federal, state and local government web resources and services.